www.pogodaiklimat.ru

Погода и климат >> Архив погоды >> Пакистан >> Фейсалабад


ПОГОДА в Фейсалабаде

  • Прогноз погоды в Фейсалабаде
  • Монитор погоды в Фейсалабаде

АРХИВ ПОГОДЫ в Фейсалабаде

Время (UTC), дата Ветер
(напр.,м/с)
 
Видим.   Явления Облачность Т
(С)
Тd
(С)
f
(%)
Тe
(С)
Тes
(С)
Комфортность P
(гПа)
Po
(гПа)
Тmin
(С)
Tmax
(С)
R
(мм)
R24
(мм)
S
(см)
03 10.07 В 5 4000 м дым 8/3 1200 м
[Sc Ac trans]
+31.0 +27.6 82 +50 +51 опасность
перегрева
994.9 974.5 +29.5
06 10.07 Ю 2 2000 м дым 8/4 1200 м
[Sc diur, vesp Ac As]
+35.0 +27.6 66 +55 +61 опасность
перегрева
994.3 1000.0
09 10.07 ЮВ 1 2000 м дым 8/4 1200 м
[Sc diur, vesp Ac As]
+38.0 +27.9 57 +58 +65 опасность
перегрева
992.4 972.5
12 10.07 Ю 2 2000 м дым 4/0
[Ac trans]
+38.0 +27.9 57 +58 +61 опасность
перегрева
990.8 1000.0 +38.3
15 10.07 ЮЗ 1 4000 м дым ясно +35.5 +27.4 63 +54 +54 опасность
перегрева
991.3 1000.0
18 10.07 штиль 0 4000 м дым 3/0
[Ac trans]
+34.0 +27.9 71 +55 +55 опасность
перегрева
992.4 1000.0
21 10.07 штиль 0 4000 м дым 3/0
[Ac trans]
+33.0 +28.3 76 +54 +54 опасность
перегрева
991.9 1000.0
00 11.07 штиль 0 2000 м дым 3/0
[Ac trans]
+31.5 +28.1 82 +52 +52 опасность
перегрева
991.0 970.8
03 11.07 В 5 2000 м дым 6/4 1200 м
[Sc Ac As]
+30.0 +24.3 72 +42 +44 опасность
перегрева
993.9 973.5 +29.5
06 11.07 ЮВ 2 4000 м дым 6/3 1200 м
[Sc Ac As]
+35.0 +26.1 60 +51 +60 опасность
перегрева
994.0 1000.0
09 11.07 Ю 2 4000 м дым 6/3 1200 м
[Sc Ac trans]
+37.5 +25.8 51 +52 +61 опасность
перегрева
993.6 1000.0
12 11.07 Ю 3 4000 м дым 6/3 1200 м
[Sc diur, vesp Ac As]
+38.0 +26.4 52 +54 +56 опасность
перегрева
992.6 972.7 +38.5
15 11.07 штиль 0 2000 м дым 6/3 1200 м
[Sc diur, vesp Ac As]
+36.0 +26.4 58 +53 +53 опасность
перегрева
993.2 1000.0
18 11.07 СВ 3 4000 м дым 5/3 1200 м
[Sc Ac As]
+34.0 +27.2 68 +53 +53 опасность
перегрева
994.5 1000.0
21 11.07 СВ 2 4000 м дым 5/5 300 м
[Sc Ac As]
+32.5 +27.8 76 +52 +52 опасность
перегрева
993.7 1000.0
00 12.07 штиль 0 4000 м дым 5/3 1200 м
[Sc Ac trans]
+30.5 +27.8 86 +50 +50 опасность
перегрева
994.9 974.5
03 12.07 ЮВ 1 2000 м дым 5/3 1200 м
[Sc Ac trans]
+32.5 +28.5 80 +55 +59 опасность
перегрева
995.0 1000.0 +29.7
06 12.07 ЮЗ 3 2000 м дым 5/3 1200 м
[Sc Ac trans]
+34.5 +26.3 62 +51 +60 опасность
перегрева
996.6 1000.0
09 12.07 Ю 3 2000 м дым 5/3 1200 м
[Sc Ac trans]
+36.5 +26.2 56 +53 +61 опасность
перегрева
995.8 975.8
12 12.07 Ю 3 2000 м дым 5/3 1200 м
[Sc Ac trans]
+36.5 +25.5 53 +51 +53 опасность
перегрева
994.6 974.6 +37.2
15 12.07 Ю 1 2000 м дым 5/3 1200 м
[Sc Ac trans]
+35.0 +26.1 60 +51 +51 опасность
перегрева
995.2 1000.0
18 12.07 штиль 0 4000 м дым 5/3 1200 м
[Sc Ac As]
+33.5 +27.4 71 +53 +53 опасность
перегрева
996.8 1000.0
21 12.07 СВ 2 4000 м зарница 9/5 900 м
[Cb cap Ac As]
+32.0 +26.5 73 +49 +49 опасность
перегрева
996.1 1000.0
00 13.07 С 1 4000 м зарница 9/5 900 м
[Cb cap Ac As]
+27.0 +23.4 81 +37 +37 очень
душно
996.7 1000.0 0.0
03 13.07 ЮЗ 3 4000 м дым 8/4 300 м
[Sc Ac trans]
+27.0 +24.1 84 +37 +40 очень
душно
996.3 1000.0 +24.3 3
06 13.07 Ю 2 4000 м дым {дождь} 4/0
[Ci fib]
+32.0 +23.4 60 +43 +63 опасность
перегрева
998.3 1000.0
09 13.07 Ю 3 4000 м дым 4/4 1200 м
[Sc diur, vesp]
+35.0 +25.3 57 +49 +59 опасность
перегрева
996.8 1000.0
12 13.07 Ю 3 4000 м дым ясно +36.0 +24.9 53 +49 +53 опасность
перегрева
995.0 1000.0 +36.3
15 13.07 ЮВ 2 4000 м дым 3/0
[Ac trans]
+34.0 +26.5 65 +51 +51 опасность
перегрева
995.5 1000.0
18 13.07 ЮВ 2 4000 м дым 6/3 1200 м
[Sc Ac trans]
+32.5 +27.0 73 +51 +51 опасность
перегрева
996.3 1000.0
21 13.07 ЮВ 1 4000 м дым 5/0
[Ac trans]
+30.5 +26.4 79 +47 +47 опасность
перегрева
995.1 1000.0
00 14.07 ЮВ 2 4000 м дым 10/5 1200 м
[Sc As trans]
+29.5 +22.2 65 +38 +38 очень
душно
994.5 1000.0
03 14.07 ЮВ 5 2000 м гроза, ливневой дождь 10/6 900 м
[Cb cap As op]
+23.0 +22.3 96 +31 +32 очень
душно
997.0 976.1 +22.8 11
06 14.07 ЮВ 1 4000 м дым {гроза, дождь} 8/3 1200 м
[Sc Ac trans]
+29.0 +23.2 71 +39 +47 очень
душно
997.0 1000.0 0.0
09 14.07 ЮВ 2 4000 м дым 8/3 1200 м
[Sc Ac trans]
+32.5 +23.2 58 +43 +49 опасность
перегрева
996.2 1000.0
12 14.07 ЮВ 2 4000 м дым 8/3 1200 м
[Sc Ac trans]
+32.0 +25.0 67 +46 +47 опасность
перегрева
994.0 1000.0 +32.9
15 14.07 ЮВ 3 4000 м дым 5/0
[Ac trans]
+30.5 +26.4 79 +47 +47 опасность
перегрева
994.5 1000.0
18 14.07 ЮВ 4 4000 м дым 5/0
[Ac trans]
+28.0 +25.9 88 +42 +42 опасность
перегрева
995.9 975.3
21 14.07 ЮВ 2 4000 м дым 4/0
[Ac trans]
+27.0 +24.9 88 +39 +39 очень
душно
994.7 1000.0
00 15.07 ЮВ 2 4000 м дым 9/3 1200 м
[Sc Ac As]
+27.0 +24.9 88 +39 +39 очень
душно
993.7 1000.0
03 15.07 СВ 5 4000 м дым 9/5 1200 м
[Sc Ac As]
+27.5 +25.4 88 +40 +41 очень
душно
996.1 975.5
06 15.07 штиль 0 50 км дым ?/? +30.5 +25.4 74 +44 +44 опасность
перегрева
995.4 1000.0
09 15.07 В 1 1000 м дым 9/4 1200 м
[Sc Ac As]
+33.5 +26.6 67 +50 +53 опасность
перегрева
994.7 1000.0
12 15.07 В 2 2000 м дым 9/4 1200 м
[Sc Ac As]
+34.0 +27.2 68 +53 +53 опасность
перегрева
993.0 1000.0 +34.3
15 15.07 В 2 4000 м гроза без осадков 9/5 900 м
[Cb cap Ac As]
+28.0 +20.5 64 +35 +35 очень
душно
994.9 1000.0
18 15.07 В 2 4000 м дым {гроза, морось} 6/3 1200 м
[Sc Ac trans]
+26.5 +23.6 84 +36 +36 очень
душно
996.3 975.6 2
21 15.07 В 1 4000 м дым {гроза, морось} ясно +26.5 +23.6 84 +36 +36 очень
душно
995.1 1000.0
00 16.07 ЮВ 1 4000 м дым 4/0
[Ac trans]
+26.5 +22.9 81 +35 +35 очень
душно
995.4 1000.0
03 16.07 В 2 2000 м дым 3/0
[Ac trans]
+28.0 +23.7 77 +38 +44 очень
душно
997.3 1000.0 +26.3
06 16.07 ЮВ 3 2000 м дым 9/5 1200 м
[Sc diur, vesp Ac As]
+31.0 +25.4 72 +45 +49 опасность
перегрева
999.2 1000.0
09 16.07 ЮВ 3 2000 м дым 9/8 300 м
[Sc diur, vesp Ac As]
+32.0 +25.0 67 +46 +48 опасность
перегрева
998.9 1000.0
12 16.07 ЮВ 3 2000 м дым 9/5 1200 м
[Sc diur, vesp Ac As]
+31.5 +25.2 69 +45 +46 опасность
перегрева
998.2 1000.0 +33.3
15 16.07 В 2 4000 м дым 4/0 1000 м
[Ac trans]
+27.0 +23.4 81 +37 +37 очень
душно
1000.2 1000.0
18 16.07 В 2 4000 м дым 8/6 300 м
[Sc Ac As]
+27.0 +23.4 81 +37 +37 очень
душно
1000.8 980.1
21 16.07 В 2 4000 м дым 6/3 1200 м
[Sc Ac As]
+25.5 +23.3 88 +34 +34 очень
душно
1000.6 1000.0
00 17.07 В 1 4000 м дым 6/3 1200 м
[Sc diur, vesp Ac As]
+24.5 +22.3 88 +32 +32 очень
душно
1001.0 1000.0

 

Местоположение метеостанции Фейсалабад (Пакистан): широта 31.43 долгота 73.10 высота над уровнем моря 184 м.

В архиве по умолчанию представлена погода в Фейсалабаде за последнюю неделю. Архивные данные за месяц целиком и за предыдущие месяцы, начиная с января 2011 года, Вы можете получить, выбрав интересующий диапазон дат из раскрывающегося списка и нажав кнопку "Ввод!".


*Определитесь, кто Вы:
робот инопланетянин человек

Внимание! Время в таблицах - всемирное. Для получения местного времени необходимо прибавить поправку, которая равна 5 ч.

Смотрите также архив погоды в соседних городах и на ближайших метеорологических станциях:

Погода в Джанге (Пакистан) (76 км)
Погода в Окаре (Пакистан) (77 км)
Погода в Тоба Тек Сингх (Пакистан) (78 км)
Погода в Саргодхе (Пакистан) (80 км)
Погода в Саргодхе (Пакистан) (80 км)
Погода в Сахивале (Пакистан) (86 км)
Погода в Хафизабаде (Пакистан) (89 км)
Погода на Авиабазе Raifiqui (Пакистан) (112 км)
Погода в Лахоре (Пакистан) (117 км)
Погода в Нур Пур Тал (Пакистан) (124 км)

Пояснения к столбцам:

Ветер - указаны скорость ветра в м/с - средняя за 10 мин, порывы в срок и между сроками (в фигурных скобках) и направление, откуда дует ветер: С - северный, СВ - северо-восточный, В - восточный, ЮВ - юго-восточный, Ю - южный, ЮЗ - юго-западный, З - западный, СЗ - северо-западный.
Видимость - горизонтальная дальность видимости в метрах или километрах. При видимости от 1 до 10 км при отсутствии осадков обычно наблюдается дымка, при ухудшении видимости до 1 км и менее - туман. В сухую погоду видимость может ухудшаться дымом, пылью или мглою.
Явления - указаны атмосферные явления, наблюдавшиеся в срок или в последний час перед сроком; фигурными скобками обозначены явления, наблюдавшиеся между сроками (за 1-3 часа до срока); квадратными скобками обозначены град или гололедные отложения с указанием их диаметра в мм.
Облачность - указаны через наклонную черту общая и нижняя облачность в баллах и высота нижней границы облаков в метрах; квадратными скобками обозначены формы облаков: Ci - перистые, Cs - перисто-слоистые, Cc - перисто-кучевые, Ac - высококучевые, As - высокослоистые, Sc - слоисто-кучевые, Ns - слоисто-дождевые, Cu - кучевые, Cb - кучево-дождевые. Подробнее классификацию облаков см. в Атласе облаков (PDF).
T - Температура воздуха - температура, измеренная на высоте 2 м над землей.
Td - Температура точки росы - температура, при понижении до которой содержащийся в воздухе водяной пар достигнет насыщения.
f - Относительная влажность воздуха - влажноcть воздуха, измеренная на высоте 2 м над землей.
Te - Эффективная температура - температура, которую ощущает одетый по сезону человек в тени. Характеристика душности погоды. При расчете учитывается влияние влажности воздуха и скорости ветра на теплоощущения человека.
Tes - Эффективная температура на солнце - температура, которую ощущает человек, с поправкой на солнечный нагрев. Характеристика знойности погоды. Зависит от высоты солнца над горизонтом, облачности и скорости ветра. Ночью, в пасмурную погоду, а также при ветре 12 м/с и более поправка равна нулю.
P - Атмосферное давление - приведенное к уровню моря атмосферное давление.
Po - Атмосферное давление - измеренное на уровне метеостанции атмосферное давление.
Tmin - Минимальная температура - минимум температуры воздуха на высоте 2 м над землей.
Tmax - Максимальная температура - максимум температуры воздуха на высоте 2 м над землей.
R - Количество осадков - Количество выпавших осадков за период времени, мм. При наведении курсора мыши на число - период времени, за который выпало указанное количество осадков.
R24 - Количество осадков - Количество выпавших осадков за 24 часа, мм.
S - Снежный покров - Высота снежного покрова, см. При наведении курсора мыши на число - состояние снежного покрова и степень покрытия местности в баллах.